DW4519 Weather Reports


Display with metric or nautical units.
time (UTC)temp
F
wind
direction
speed
MPH
gust
MPH
rain 1hr
in
rain 24hr
in
rain mn
in
humidity
%
barometer
mb
20230201114602 46 230 6.0 20.0 0.00 0.00 0.00 78 1019.2
20230201114333 46 297 8.0 20.0 0.00 0.00 0.00 78 1018.9
20230201113832 46 265 9.0 20.0 0.00 0.00 0.00 78 1018.8
20230201113335 46 264 10.0 22.0 0.00 0.00 0.00 78 1018.8
20230201113001 46 334 10.0 22.0 0.00 0.00 0.00 78 1019.3
20230201112834 46 285 10.0 22.0 0.00 0.00 0.00 78 1018.8
20230201112328 46 281 9.0 19.0 0.00 0.00 0.00 78 1018.9
20230201111821 46 276 8.0 23.0 0.00 0.00 0.00 78 1018.9
20230201111606 46 275 7.0 23.0 0.00 0.00 0.00 78 1019.3
20230201111320 46 283 10.0 23.0 0.00 0.00 0.00 79 1018.8
20230201111314 46 279 9.0 23.0 0.00 0.00 0.00 78 1018.9
20230201110303 46 264 9.0 23.0 0.00 0.00 0.00 79 1018.9
20230201110059 45 250 11.0 19.0 0.00 0.00 0.00 79 1019.2
20230201105801 46 285 9.0 19.0 0.00 0.00 0.00 79 1018.9
20230201105255 46 265 9.0 19.0 0.00 0.00 0.00 79 1019.0
20230201104812 46 225 10.0 19.0 0.00 0.00 0.00 80 1019.2
20230201104607 45 302 7.0 19.0 0.00 0.00 0.00 80 1019.5
20230201104525 46 292 10.0 21.0 0.00 0.00 0.00 79 1019.2
20230201103758 46 288 9.0 21.0 0.00 0.00 0.00 80 1019.1
20230201103254 46 288 10.0 19.0 0.00 0.00 0.00 79 1019.0
20230201103114 45 257 9.0 19.0 0.00 0.00 0.00 79 1019.4
20230201102757 46 274 10.0 19.0 0.00 0.00 0.00 79 1019.2
20230201102528 46 306 9.0 17.0 0.00 0.00 0.00 79 1019.1
20230201101753 46 257 10.0 22.0 0.00 0.00 0.00 78 1019.1
20230201101557 45 284 8.0 22.0 0.00 0.00 0.00 78 1019.4
20230201101253 46 279 10.0 22.0 0.00 0.00 0.00 78 1019.2
20230201100755 46 285 9.0 20.0 0.00 0.00 0.00 79 1019.3
20230201100253 46 268 9.0 19.0 0.00 0.00 0.00 79 1019.2
20230201100059 45 278 10.0 19.0 0.00 0.00 0.00 79 1019.5
20230201095753 46 227 8.0 16.0 0.00 0.00 0.00 79 1019.1
20230201095257 46 322 9.0 21.0 0.00 0.00 0.00 79 1019.0
20230201094755 46 259 9.0 21.0 0.00 0.00 0.00 79 1018.9
20230201094559 45 264 8.0 22.0 0.00 0.00 0.00 79 1019.3
20230201094254 46 272 8.0 22.0 0.00 0.00 0.00 79 1018.9
20230201093756 46 270 9.0 22.0 0.00 0.00 0.00 79 1018.9
20230201093525 46 274 9.0 20.0 0.00 0.00 0.00 79 1018.7
20230201093057 45 245 8.0 20.0 0.00 0.00 0.00 79 1019.2
20230201092749 46 264 8.0 20.0 0.00 0.00 0.00 78 1018.8
20230201092249 45 266 8.0 19.0 0.00 0.00 0.00 78 1018.8
20230201091750 45 242 8.0 19.0 0.00 0.00 0.00 79 1019.0
20230201091553 45 246 7.0 19.0 0.00 0.00 0.00 79 1019.3
20230201091250 45 290 8.0 16.0 0.00 0.00 0.00 79 1019.0
20230201091021 45 266 7.0 14.0 0.00 0.00 0.00 79 1019.0
20230201090249 45 290 8.0 16.0 0.00 0.00 0.00 79 1019.1
20230201090059 44 273 5.0 16.0 0.00 0.00 0.00 79 1019.4
20230201090021 45 289 8.0 16.0 0.00 0.00 0.00 79 1018.9
20230201085750 45 289 8.0 16.0 0.00 0.00 0.00 79 1018.9
20230201085251 45 243 8.0 16.0 0.00 0.00 0.00 79 1019.0
20230201085245 45 278 8.0 16.0 0.00 0.00 0.00 79 1019.0
20230201084549 44 292 8.0 16.0 0.00 0.00 0.00 80 1019.5
20230201084245 44 282 7.0 16.0 0.00 0.00 0.00 80 1019.0
20230201083747 44 275 7.0 16.0 0.00 0.00 0.00 80 1019.2
20230201083248 44 256 7.0 14.0 0.00 0.00 0.00 80 1019.1
20230201083058 44 277 6.0 14.0 0.00 0.00 0.00 80 1019.6
20230201082747 44 278 7.0 14.0 0.00 0.00 0.00 80 1019.1
20230201082246 44 279 7.0 16.0 0.00 0.00 0.00 81 1019.2
20230201082016 44 233 7.0 16.0 0.00 0.00 0.00 81 1019.2
20230201081549 44 283 5.0 16.0 0.00 0.00 0.00 81 1019.8
20230201081245 44 290 7.0 16.0 0.00 0.00 0.00 81 1019.5
20230201080745 44 278 8.0 16.0 0.00 0.00 0.00 81 1019.4
20230201080243 44 250 7.0 17.0 0.00 0.00 0.00 81 1019.3
20230201080052 43 286 8.0 17.0 0.00 0.00 0.00 82 1019.7
20230201075743 44 282 7.0 17.0 0.00 0.00 0.00 82 1019.3
20230201075244 44 288 6.0 14.0 0.00 0.00 0.00 82 1019.2
20230201074743 44 273 7.0 18.0 0.00 0.00 0.00 81 1019.2
20230201074548 43 303 7.0 18.0 0.00 0.00 0.00 81 1019.6
20230201074245 44 254 6.0 18.0 0.00 0.00 0.00 81 1019.1
20230201073743 44 282 6.0 13.0 0.00 0.00 0.00 81 1019.1
20230201073515 44 278 6.0 13.0 0.00 0.00 0.00 81 1019.0
20230201073059 43 287 6.0 13.0 0.00 0.00 0.00 81 1019.4
20230201072743 44 262 6.0 13.0 0.00 0.00 0.00 81 1019.0
20230201072245 44 283 7.0 14.0 0.00 0.00 0.00 81 1018.8
20230201071736 44 277 7.0 14.0 0.00 0.00 0.00 81 1018.9
20230201071548 43 292 7.0 14.0 0.00 0.00 0.00 81 1019.2
20230201071239 44 277 7.0 18.0 0.00 0.00 0.00 81 1018.7
20230201070737 44 288 6.0 18.0 0.00 0.00 0.00 81 1018.9
20230201070237 44 283 6.0 13.0 0.00 0.00 0.00 80 1018.9
20230201070044 43 323 5.0 13.0 0.00 0.00 0.00 80 1019.2
20230201065737 44 285 7.0 17.0 0.00 0.00 0.00 80 1018.9
20230201065234 44 272 7.0 17.0 0.00 0.00 0.00 80 1018.9
20230201064735 44 271 7.0 16.0 0.00 0.00 0.00 80 1019.0
20230201064544 43 285 7.0 16.0 0.00 0.00 0.00 80 1019.3
20230201064234 44 271 7.0 16.0 0.00 0.00 0.00 80 1018.9
20230201063735 44 278 8.0 18.0 0.00 0.00 0.00 80 1019.0
20230201063233 44 260 8.0 18.0 0.00 0.00 0.00 80 1019.1
20230201063048 43 259 8.0 17.0 0.00 0.00 0.00 80 1019.4
20230201062736 44 321 7.0 15.0 0.00 0.00 0.00 80 1019.0
20230201062504 44 301 6.0 15.0 0.00 0.00 0.00 80 1019.0
20230201061736 44 278 6.0 14.0 0.00 0.00 0.00 80 1019.0
20230201061543 43 282 5.0 17.0 0.00 0.00 0.00 80 1019.4
20230201061233 44 286 7.0 17.0 0.00 0.00 0.00 80 1018.9
20230201060734 44 303 7.0 17.0 0.00 0.00 0.00 79 1018.7
20230201060235 44 319 7.0 15.0 0.00 0.00 0.00 80 1018.6
20230201060100 43 290 5.0 14.0 0.00 0.00 0.00 80 1019.1
20230201060004 44 300 7.0 14.0 0.00 0.00 0.00 79 1018.7
20230201055502 44 302 8.0 17.0 0.00 0.00 0.00 79 1018.7
20230201054722 44 316 8.0 17.0 0.00 0.00 0.00 78 1018.8
20230201054544 44 280 7.0 18.0 0.00 0.00 0.00 78 1019.1
20230201054454 44 290 9.0 22.0 0.00 0.00 0.00 78 1018.7
20230201053946 44 286 8.0 19.0 0.00 0.00 0.00 78 1018.8
20230201053710 44 281 8.0 22.0 0.00 0.00 0.00 78 1018.7
20230201053040 44 282 6.0 19.0 0.00 0.00 0.00 78 1019.2
20230201052657 44 287 9.0 20.0 0.00 0.00 0.00 77 1018.7
20230201052152 44 261 9.0 20.0 0.00 0.00 0.00 77 1018.7
20230201051646 44 276 8.0 17.0 0.00 0.00 0.00 78 1018.6
20230201051544 44 297 8.0 16.0 0.00 0.00 0.00 78 1019.0
20230201051143 45 276 8.0 16.0 0.00 0.00 0.00 78 1018.6
20230201050634 45 323 7.0 16.0 0.00 0.00 0.00 78 1018.6
20230201050129 45 269 7.0 17.0 0.00 0.00 0.00 78 1018.7
20230201050038 44 278 7.0 17.0 0.00 0.00 0.00 78 1019.1
20230201045622 45 300 7.0 17.0 0.00 0.00 0.00 77 1018.7
20230201045116 44 285 7.0 14.0 0.00 0.00 0.00 78 1018.7
20230201044842 44 290 8.0 14.0 0.00 0.00 0.00 78 1018.9
20230201044536 44 295 7.0 14.0 0.00 0.00 0.00 78 1019.3
20230201044104 44 293 7.0 14.0 0.00 0.00 0.00 78 1018.8
20230201043601 44 272 6.0 13.0 0.00 0.00 0.00 78 1018.7
20230201043051 44 270 7.0 14.0 0.00 0.00 0.00 78 1018.6
20230201043034 44 287 5.0 14.0 0.00 0.00 0.00 78 1019.1
20230201042817 44 259 7.0 14.0 0.00 0.00 0.00 78 1018.8
20230201042039 44 258 7.0 18.0 0.00 0.00 0.00 78 1018.8
20230201041538 44 283 6.0 18.0 0.00 0.00 0.00 78 1019.1
20230201041534 44 304 7.0 18.0 0.00 0.00 0.00 78 1018.6
20230201041027 44 289 7.0 16.0 0.00 0.00 0.00 78 1018.6
20230201040523 44 307 6.0 13.0 0.00 0.00 0.00 79 1018.7
20230201040247 44 276 7.0 16.0 0.00 0.00 0.00 79 1018.7
20230201040033 44 237 6.0 16.0 0.00 0.00 0.00 79 1019.1
20230201035511 44 280 7.0 16.0 0.00 0.00 0.00 79 1018.8
20230201035005 44 276 7.0 19.0 0.00 0.00 0.00 79 1018.8
20230201034529 44 296 8.0 19.0 0.00 0.00 0.00 78 1019.2
20230201034457 44 266 7.0 19.0 0.00 0.00 0.00 78 1018.8
20230201033951 44 313 7.0 15.0 0.00 0.00 0.00 78 1018.7
20230201033445 44 279 7.0 15.0 0.00 0.00 0.00 79 1018.7
20230201033035 44 287 6.0 14.0 0.00 0.00 0.00 79 1019.1
20230201032939 44 246 7.0 15.0 0.00 0.00 0.00 79 1018.6
20230201032434 44 297 7.0 15.0 0.00 0.00 0.00 79 1018.7
20230201032200 44 279 6.0 12.0 0.00 0.00 0.00 79 1018.9
20230201031526 44 300 6.0 12.0 0.00 0.00 0.00 79 1019.3
20230201031423 44 311 6.0 14.0 0.00 0.00 0.00 79 1019.0
20230201030916 44 279 7.0 14.0 0.00 0.00 0.00 79 1019.1
20230201030411 44 286 7.0 12.0 0.00 0.00 0.00 79 1019.2
20230201030024 44 297 5.0 12.0 0.00 0.00 0.00 79 1019.5
20230201025904 44 288 7.0 12.0 0.00 0.00 0.00 78 1019.1
20230201025358 44 293 7.0 17.0 0.00 0.00 0.00 79 1019.1
20230201024852 44 291 7.0 17.0 0.00 0.00 0.00 79 1018.9
20230201024522 44 291 7.0 17.0 0.00 0.00 0.00 79 1019.2
20230201024346 44 297 6.0 15.0 0.00 0.00 0.00 79 1018.9
20230201023844 44 314 7.0 14.0 0.00 0.00 0.00 79 1018.9
20230201023840 44 272 7.0 15.0 0.00 0.00 0.00 79 1018.9
20230201023020 44 287 6.0 14.0 0.00 0.00 0.00 79 1019.4
20230201022828 44 288 7.0 14.0 0.00 0.00 0.00 79 1019.0
20230201022326 44 300 7.0 15.0 0.00 0.00 0.00 78 1019.1
20230201021816 44 274 7.0 15.0 0.00 0.00 0.00 78 1019.2
20230201021518 44 277 6.0 12.0 0.00 0.00 0.00 78 1019.6
20230201021310 44 289 7.0 14.0 0.00 0.00 0.00 78 1019.2
20230201020804 44 305 6.0 14.0 0.00 0.00 0.00 78 1019.2
20230201020258 44 278 6.0 14.0 0.00 0.00 0.00 79 1019.2
20230201020023 44 277 5.0 14.0 0.00 0.00 0.00 79 1019.3
20230201020017 44 289 5.0 14.0 0.00 0.00 0.00 79 1019.6
20230201015245 44 252 6.0 13.0 0.00 0.00 0.00 78 1019.3
20230201014739 44 290 7.0 13.0 0.00 0.00 0.00 78 1019.2
20230201014517 44 276 6.0 13.0 0.00 0.00 0.00 78 1019.6
20230201014234 44 271 6.0 13.0 0.00 0.00 0.00 78 1019.3
20230201013729 44 274 6.0 17.0 0.00 0.00 0.00 78 1019.3
20230201013228 44 277 6.0 17.0 0.00 0.00 0.00 78 1019.2
20230201013028 44 288 6.0 17.0 0.00 0.00 0.00 78 1019.6
20230201012728 44 276 6.0 15.0 0.00 0.00 0.00 78 1019.4
20230201012228 44 285 6.0 15.0 0.00 0.00 0.00 77 1019.3
20230201011750 44 282 5.0 11.0 0.00 0.00 0.00 77 1019.3
20230201011742 44 287 6.0 15.0 0.00 0.00 0.00 77 1019.2
20230201011513 44 268 5.0 15.0 0.00 0.00 0.00 77 1019.3
20230201011510 44 306 6.0 15.0 0.00 0.00 0.00 77 1019.6
20230201010227 44 294 4.0 11.0 0.00 0.00 0.00 76 1019.3
20230201010006 44 278 5.0 11.0 0.00 0.00 0.00 76 1019.7
20230201005726 44 264 5.0 14.0 0.00 0.00 0.00 76 1019.5
20230201005226 44 278 6.0 14.0 0.00 0.00 0.00 75 1019.6
20230201004728 44 265 5.0 12.0 0.00 0.00 0.00 75 1019.6
20230201004505 44 278 5.0 11.0 0.00 0.00 0.00 75 1019.9
20230201004226 44 275 5.0 11.0 0.00 0.00 0.00 76 1019.6
20230201003727 44 309 5.0 12.0 0.00 0.00 0.00 76 1019.6
20230201003226 44 295 6.0 12.0 0.00 0.00 0.00 75 1019.5
20230201003003 44 266 6.0 12.0 0.00 0.00 0.00 76 1019.9
20230201002726 44 282 5.0 13.0 0.00 0.00 0.00 76 1019.6
20230201002222 44 290 6.0 13.0 0.00 0.00 0.00 77 1019.6
20230201001952 44 279 5.0 13.0 0.00 0.00 0.00 78 1019.6
20230201001615 43 285 4.0 11.0 0.00 0.00 0.00 78 1019.9
20230201001224 44 272 4.0 8.0 0.00 0.00 0.00 78 1019.5
20230201000722 43 271 4.0 8.0 0.00 0.00 0.00 79 1019.4
20230201000225 43 269 3.0 7.0 0.00 0.00 0.00 79 1019.6
20230201000057 43 255 2.0 7.0 0.00 0.00 0.00 79 1019.9
20230131235728 43 263 4.0 8.0 0.00 0.00 0.00 78 1019.7
20230131235722 43 245 3.0 8.0 0.00 0.00 0.00 79 1019.6
20230131234722 43 303 4.0 8.0 0.00 0.00 0.00 79 1020.0
20230131234555 43 274 3.0 8.0 0.00 0.00 0.00 79 1020.3
20230131234222 43 236 4.0 9.0 0.00 0.00 0.00 79 1019.9
20230131233953 43 285 5.0 10.0 0.00 0.00 0.00 80 1020.0
20230131233225 43 276 5.0 10.0 0.00 0.00 0.00 80 1020.1
20230131233052 42 281 5.0 10.0 0.00 0.00 0.00 81 1020.4
20230131232723 42 281 3.0 10.0 0.00 0.00 0.00 81 1020.1
20230131232222 42 248 2.0 6.0 0.00 0.00 0.00 81 1020.3
20230131231722 42 262 2.0 5.0 0.00 0.00 0.00 80 1020.2
20230131231550 42 240 1.0 5.0 0.00 0.00 0.00 79 1020.5
20230131231222 43 270 2.0 5.0 0.00 0.00 0.00 79 1020.3
20230131230721 43 259 3.0 7.0 0.00 0.00 0.00 79 1020.3
20230131230453 43 275 4.0 8.0 0.00 0.00 0.00 78 1020.3
20230131230059 43 280 3.0 8.0 0.00 0.00 0.00 78 1020.6
20230131225721 43 282 4.0 8.0 0.00 0.00 0.00 78 1020.3
20230131225216 43 283 3.0 7.0 0.00 0.00 0.00 78 1020.1
20230131224942 43 273 2.0 7.0 0.00 0.00 0.00 78 1020.1
20230131224545 42 306 2.0 7.0 0.00 0.00 0.00 78 1020.4
20230131224205 43 300 2.0 6.0 0.00 0.00 0.00 78 1020.1
20230131223930 43 274 3.0 8.0 0.00 0.00 0.00 78 1019.8
20230131223424 43 282 3.0 8.0 0.00 0.00 0.00 78 1019.8
20230131223055 42 230 3.0 8.0 0.00 0.00 0.00 78 1020.4
20230131222647 43 271 3.0 7.0 0.00 0.00 0.00 77 1019.7
20230131222410 43 291 3.0 7.0 0.00 0.00 0.00 77 1019.6
20230131221634 43 250 3.0 7.0 0.00 0.00 0.00 76 1020.0
20230131221546 43 248 1.0 7.0 0.00 0.00 0.00 76 1020.2
20230131221128 43 265 3.0 8.0 0.00 0.00 0.00 76 1019.9
20230131220622 43 252 4.0 9.0 0.00 0.00 0.00 76 1019.9
20230131220352 43 285 4.0 9.0 0.00 0.00 0.00 75 1020.0
20230131220114 43 302 3.0 8.0 0.00 0.00 0.00 75 1020.0
20230131220048 43 278 4.0 9.0 0.00 0.00 0.00 75 1020.3
20230131215105 44 303 3.0 8.0 0.00 0.00 0.00 74 1020.3
20230131214558 44 276 2.0 8.0 0.00 0.00 0.00 74 1020.3
20230131214543 43 296 2.0 8.0 0.00 0.00 0.00 74 1020.6
20230131214053 44 297 2.0 8.0 0.00 0.00 0.00 73 1020.3
20230131213546 44 290 3.0 8.0 0.00 0.00 0.00 72 1020.3
20230131213311 44 297 3.0 7.0 0.00 0.00 0.00 71 1020.2
20230131213042 44 264 3.0 7.0 0.00 0.00 0.00 71 1020.5
20230131212534 44 283 4.0 9.0 0.00 0.00 0.00 71 1020.3
20230131212029 45 288 5.0 11.0 0.00 0.00 0.00 70 1020.3
20230131211553 44 295 5.0 12.0 0.00 0.00 0.00 70 1020.7
20230131211522 45 289 6.0 12.0 0.00 0.00 0.00 70 1020.3
20230131211018 45 287 5.0 9.0 0.00 0.00 0.00 69 1020.4
20230131210510 45 300 5.0 10.0 0.00 0.00 0.00 69 1020.4
20230131210043 45 290 4.0 12.0 0.00 0.00 0.00 69 1020.6
20230131210006 45 293 6.0 12.0 0.00 0.00 0.00 69 1020.3
20230131205459 46 270 7.0 13.0 0.00 0.00 0.00 68 1020.4
20230131204952 45 301 7.0 15.0 0.00 0.00 0.00 68 1020.5
20230131204542 45 289 7.0 15.0 0.00 0.00 0.00 69 1020.9
20230131204453 45 289 6.0 15.0 0.00 0.00 0.00 70 1020.5
20230131203952 45 292 6.0 13.0 0.00 0.00 0.00 70 1020.5
20230131203453 45 297 6.0 13.0 0.00 0.00 0.00 71 1020.5
20230131203108 45 303 6.0 16.0 0.00 0.00 0.00 71 1020.8
20230131202952 45 342 7.0 16.0 0.00 0.00 0.00 71 1020.5
20230131202452 45 288 6.0 16.0 0.00 0.00 0.00 74 1020.7
20230131201953 45 293 5.0 14.0 0.00 0.00 0.00 75 1020.6
20230131201535 44 295 3.0 7.0 0.00 0.00 0.00 77 1021.0
20230131201452 45 318 4.0 9.0 0.00 0.00 0.00 77 1020.6
20230131200952 45 297 5.0 9.0 0.00 0.00 0.00 77 1020.6
20230131200737 45 270 4.0 9.0 0.00 0.00 0.00 78 1020.5
20230131200034 44 289 4.0 9.0 0.00 0.00 0.00 79 1021.0
20230131195953 45 283 3.0 9.0 0.00 0.00 0.00 79 1020.7
20230131195453 45 281 3.0 8.0 0.00 0.00 0.00 80 1020.7
20230131194952 45 279 4.0 7.0 0.00 0.00 0.00 79 1020.7
20230131194535 45 275 3.0 7.0 0.00 0.00 0.00 79 1021.0
20230131194452 45 285 4.0 7.0 0.00 0.00 0.00 79 1020.6
20230131193948 45 276 3.0 7.0 0.00 0.00 0.00 80 1020.7
20230131193447 45 284 4.0 8.0 0.00 0.00 0.00 80 1020.7
20230131193045 44 276 3.0 8.0 0.00 0.00 0.00 80 1021.1
20230131192949 45 264 4.0 8.0 0.00 0.00 0.00 80 1020.7
20230131192447 45 299 4.0 9.0 0.00 0.00 0.00 81 1020.8
20230131191954 44 278 3.0 8.0 0.00 0.00 0.00 84 1020.8
20230131191948 44 302 3.0 9.0 0.00 0.00 0.00 83 1020.8
20230131191531 44 307 3.0 8.0 0.00 0.00 0.00 84 1021.2
20230131191221 44 285 3.0 6.0 0.00 0.00 0.00 84 1020.8
20230131190451 44 283 3.0 6.0 0.00 0.00 0.00 84 1020.9
20230131190030 44 285 2.0 5.0 0.00 0.00 0.00 85 1021.1
20230131185949 44 288 3.0 5.0 0.00 0.00 0.00 85 1020.9
20230131185445 44 294 3.0 7.0 0.00 0.00 0.00 85 1020.9
20230131184945 44 281 3.0 7.0 0.00 0.00 0.00 85 1020.9
20230131184533 44 288 3.0 7.0 0.00 0.00 0.00 86 1021.3
20230131184447 44 266 2.0 5.0 0.00 0.00 0.00 86 1020.9
20230131184215 44 285 2.0 5.0 0.00 0.00 0.00 86 1020.9
20230131183446 44 285 2.0 6.0 0.00 0.00 0.00 87 1020.9
20230131183029 44 250 1.0 6.0 0.00 0.00 0.00 86 1021.2
20230131182945 44 258 2.0 6.0 0.00 0.00 0.00 86 1020.8
20230131182447 44 288 3.0 6.0 0.00 0.00 0.00 86 1020.9
20230131181945 45 275 3.0 7.0 0.00 0.00 0.00 86 1020.8
20230131181528 44 281 2.0 7.0 0.00 0.00 0.00 86 1021.2
20230131181446 44 288 2.0 7.0 0.00 0.00 0.00 86 1020.8
20230131181209 44 281 2.0 6.0 0.00 0.00 0.00 85 1020.8
20230131180439 44 268 2.0 5.0 0.00 0.00 0.00 85 1020.8
20230131180027 44 268 2.0 6.0 0.00 0.00 0.00 85 1021.1
20230131175949 45 239 2.0 6.0 0.00 0.00 0.00 85 1020.7
20230131175437 45 285 3.0 6.0 0.00 0.00 0.00 85 1020.7
20230131174939 45 315 3.0 6.0 0.00 0.00 0.00 85 1020.7
20230131174528 45 292 2.0 5.0 0.00 0.00 0.00 85 1021.1
20230131174438 45 277 2.0 5.0 0.00 0.00 0.00 85 1020.7
20230131173941 45 279 2.0 4.0 0.00 0.00 0.00 85 1020.8
20230131173438 46 290 3.0 9.0 0.00 0.00 0.00 85 1020.8
20230131173029 45 255 2.0 9.0 0.00 0.00 0.00 85 1021.1
20230131172936 46 243 3.0 9.0 0.00 0.00 0.00 85 1020.8
20230131172708 46 286 3.0 8.0 0.00 0.00 0.00 85 1020.8
20230131171937 46 289 4.0 8.0 0.00 0.00 0.00 85 1020.7
20230131171525 46 286 3.0 8.0 0.00 0.00 0.00 85 1021.2
20230131171438 46 274 4.0 8.0 0.00 0.00 0.00 85 1020.7
20230131170930 47 243 4.0 10.0 0.00 0.00 0.00 85 1020.7
20230131170422 47 297 5.0 12.0 0.00 0.00 0.00 86 1020.7
20230131170027 46 295 3.0 12.0 0.00 0.00 0.00 85 1021.0
20230131165917 47 257 5.0 12.0 0.00 0.00 0.00 85 1020.6
20230131165410 47 265 4.0 8.0 0.00 0.00 0.00 85 1020.7
20230131164908 47 257 4.0 10.0 0.00 0.00 0.00 85 1020.6
20230131164524 47 273 3.0 12.0 0.00 0.00 0.00 86 1021.1
20230131164407 47 274 4.0 12.0 0.00 0.00 0.00 86 1020.8
20230131163909 47 279 5.0 12.0 0.00 0.00 0.00 86 1020.8
20230131163641 47 264 5.0 11.0 0.00 0.00 0.00 86 1020.7
20230131163023 47 279 6.0 11.0 0.00 0.00 0.00 86 1021.3
20230131162909 47 284 4.0 10.0 0.00 0.00 0.00 86 1020.9
20230131162409 47 292 4.0 11.0 0.00 0.00 0.00 86 1020.8
20230131161905 47 263 5.0 14.0 0.00 0.00 0.00 86 1020.8
20230131161649 47 276 5.0 14.0 0.00 0.00 0.00 86 1020.7
20230131161527 47 285 5.0 14.0 0.00 0.00 0.00 86 1021.2
20230131160906 47 283 4.0 10.0 0.00 0.00 0.00 86 1020.6
20230131160406 47 309 3.0 10.0 0.00 0.00 0.00 86 1020.6
20230131160027 47 277 2.0 5.0 0.00 0.00 0.00 86 1021.0
20230131155904 47 271 3.0 7.0 0.00 0.00 0.00 86 1020.5
20230131155636 47 272 4.0 12.0 0.00 0.00 0.00 86 1020.5
20230131154903 47 289 4.0 12.0 0.00 0.00 0.00 86 1020.6
20230131154523 47 276 3.0 12.0 0.00 0.00 0.00 86 1020.9
20230131154404 47 295 5.0 12.0 0.00 0.00 0.00 86 1020.5
20230131153905 47 291 5.0 12.0 0.00 0.00 0.00 86 1020.5
20230131153404 47 295 5.0 13.0 0.00 0.00 0.00 86 1020.5
20230131153024 47 274 5.0 13.0 0.00 0.00 0.00 86 1020.8
20230131152858 47 274 6.0 14.0 0.00 0.00 0.00 86 1020.4
20230131152351 47 288 6.0 15.0 0.00 0.00 0.00 86 1020.2
20230131151846 47 283 6.0 15.0 0.00 0.00 0.00 86 1020.3
20230131151522 47 255 7.0 13.0 0.00 0.00 0.00 86 1020.6
20230131151341 47 240 6.0 11.0 0.00 0.00 0.00 86 1020.4
20230131151334 47 295 6.0 12.0 0.00 0.00 0.00 86 1020.3
20230131150559 47 278 6.0 12.0 0.00 0.00 0.00 85 1020.2
20230131150020 47 221 5.0 12.0 0.00 0.00 0.00 85 1020.5
20230131145821 47 262 6.0 12.0 0.00 0.00 0.00 85 1020.2
20230131145318 47 274 6.0 12.0 0.00 0.00 0.00 85 1020.1
20230131144812 47 288 7.0 12.0 0.00 0.00 0.00 85 1020.2
20230131144805 47 264 6.0 13.0 0.00 0.00 0.00 85 1020.2
20230131144522 47 274 6.0 12.0 0.00 0.00 0.00 85 1020.5
20230131143757 47 283 7.0 13.0 0.00 0.00 0.00 85 1020.0
20230131143251 47 286 7.0 16.0 0.00 0.00 0.00 85 1020.0
20230131143019 47 285 6.0 16.0 0.00 0.00 0.00 85 1020.3
20230131142740 48 297 6.0 15.0 0.00 0.00 0.00 85 1020.0
20230131141734 48 272 6.0 13.0 0.00 0.00 0.00 85 1020.0
20230131141518 47 306 5.0 14.0 0.00 0.00 0.00 85 1020.2
20230131141227 47 299 7.0 14.0 0.00 0.00 0.00 85 1019.7
20230131140721 48 295 7.0 14.0 0.00 0.00 0.00 85 1019.7
20230131140228 48 270 7.0 14.0 0.00 0.00 0.00 85 1019.6
20230131140018 47 278 8.0 13.0 0.00 0.00 0.00 85 1020.0
20230131135710 48 252 8.0 19.0 0.00 0.00 0.00 84 1019.7
20230131135203 48 280 8.0 19.0 0.00 0.00 0.00 84 1019.5
20230131134657 48 287 7.0 17.0 0.00 0.00 0.00 84 1019.4
20230131134516 48 285 7.0 17.0 0.00 0.00 0.00 84 1019.8
20230131134151 48 271 7.0 16.0 0.00 0.00 0.00 84 1019.4
20230131133645 48 287 7.0 16.0 0.00 0.00 0.00 84 1019.2
20230131133140 48 236 7.0 16.0 0.00 0.00 0.00 84 1019.2
20230131133013 48 283 7.0 17.0 0.00 0.00 0.00 84 1019.5
20230131132906 48 255 7.0 17.0 0.00 0.00 0.00 84 1019.2
20230131132126 48 281 7.0 19.0 0.00 0.00 0.00 85 1019.1
20230131131623 47 283 8.0 19.0 0.00 0.00 0.00 85 1019.2
20230131131509 47 283 10.0 19.0 0.00 0.00 0.00 85 1019.6
20230131131115 47 294 7.0 15.0 0.00 0.00 0.00 85 1019.3
20230131130609 47 224 7.0 14.0 0.00 0.00 0.00 86 1019.5
20230131130103 47 255 6.0 14.0 0.00 0.00 0.00 86 1019.4
20230131130008 46 283 6.0 12.0 0.00 0.00 0.00 86 1019.8
20230131125558 47 289 6.0 12.0 0.00 0.00 0.00 86 1019.3
20230131125052 47 11 6.0 15.0 0.00 0.00 0.00 86 1019.3
20230131124545 47 254 6.0 15.0 0.00 0.00 0.00 86 1019.5
20230131124505 46 272 6.0 15.0 0.00 0.00 0.00 86 1019.8
20230131124045 46 248 7.0 14.0 0.00 0.00 0.00 86 1019.5
20230131123534 46 283 6.0 14.0 0.00 0.00 0.00 86 1019.7
20230131123028 46 250 6.0 14.0 0.00 0.00 0.00 86 1019.7
20230131123002 46 252 5.0 14.0 0.00 0.00 0.00 86 1020.1
20230131122521 46 271 6.0 14.0 0.00 0.00 0.00 86 1019.8
20230131122246 46 275 7.0 14.0 0.00 0.00 0.00 86 1020.0
20230131121600 46 283 5.0 13.0 0.00 0.00 0.00 86 1020.3
20230131121510 46 280 7.0 13.0 0.00 0.00 0.00 86 1019.9
20230131121002 46 271 6.0 15.0 0.00 0.00 0.00 87 1020.0
20230131120459 46 298 6.0 15.0 0.00 0.00 0.00 87 1020.1
20230131120100 45 244 7.0 14.0 0.00 0.00 0.00 87 1020.5
20230131115951 46 286 6.0 12.0 0.00 0.00 0.00 87 1020.0
20230131115445 46 290 7.0 17.0 0.00 0.00 0.00 87 1020.2
20230131114946 46 286 7.0 17.0 0.00 0.00 0.00 87 1020.1